Wind_Speed
9 9 9 9 9 9 9 8 8 8 9 9 9 9 9 9 9 9 10 10 10 10 10 11 12 12 12 13 13 13 14 14 15 15 15 16 17 16 16 17 17 17 17
10 10 10 8 8 9 9 9 9 9 9 9 10 10 10 10 10 10 10 11 11 11 11 12 12 12 13 13 14 14 15 15 16 16 16 17 18 18 17 17 17 17 17
11 11 11 10 10 10 10 10 10 9 9 9 10 10 10 11 11 11 11 11 11 12 12 13 13 13 14 14 15 15 16 16 17 17 18 19 19 19 19 18 18 18 18
12 12 12 11 11 11 11 11 10 10 10 11 11 11 11 12 12 13 13 13 13 13 13 14 14 14 15 15 16 16 17 18 18 19 20 20 20 20 20 20 19 18 18
13 13 13 13 13 12 12 12 12 12 12 12 12 12 13 13 14 14 14 14 14 14 15 15 15 15 16 16 17 18 19 19 20 20 21 21 21 21 20 21 21 20 20
15 15 15 14 14 14 14 13 13 13 13 13 13 13 14 14 15 15 15 15 15 16 16 16 16 17 17 18 19 20 20 21 21 22 22 22 22 22 22 22 21 21 21
15 15 15 15 15 15 15 15 15 15 15 15 15 15 16 16 16 17 16 17 17 17 18 18 19 18 19 20 21 22 22 23 23 23 24 24 23 23 23 22 22 22 23
15 16 16 16 16 16 16 16 16 16 16 16 16 17 17 17 17 17 18 18 18 19 19 19 20 21 21 22 22 23 24 24 25 25 25 25 24 24 23 23 23 23 23
15 16 16 17 17 17 16 17 16 16 17 17 17 17 18 18 18 18 19 19 19 20 21 21 22 22 24 24 24 25 25 26 26 26 26 25 25 25 24 24 24 24 24
16 17 17 18 18 18 18 18 18 17 18 18 18 19 20 20 20 20 20 21 22 22 22 23 24 24 25 26 26 27 27 27 27 27 27 27 26 26 26 26 26 26 26
17 18 18 19 19 19 20 20 20 19 20 20 20 20 21 21 21 21 22 23 23 23 24 25 25 26 27 28 28 28 28 28 28 28 28 28 28 27 27 28 28 28 28
19 19 19 20 21 20 21 21 21 20 21 21 21 21 22 22 22 23 24 24 24 25 26 26 27 27 28 28 29 29 29 29 29 29 30 29 29 29 29 30 30 30 30
20 20 21 22 22 22 22 22 21 21 21 22 22 22 23 23 24 24 25 25 25 26 27 28 28 29 29 29 30 30 30 30 31 31 31 31 31 31 32 32 32 32 33
21 22 22 23 23 23 23 23 22 22 22 23 23 24 24 25 26 26 27 27 27 28 29 29 29 30 30 30 31 31 31 32 32 32 32 32 32 33 33 34 34 34 34
23 23 23 23 24 24 23 23 23 23 24 25 25 26 26 27 28 28 28 29 29 29 30 30 31 31 31 32 32 33 33 33 33 34 34 34 34 35 35 35 35 36 36
24 24 24 24 24 24 24 24 25 25 26 26 26 27 28 28 29 29 30 31 31 31 31 31 32 32 33 33 34 34 34 35 35 36 36 36 36 37 37 37 37 37 37
24 24 24 24 24 24 24 25 25 26 27 27 27 28 29 29 30 30 31 32 33 33 33 33 34 34 35 35 35 35 36 36 37 37 38 38 38 38 39 39 39 39 39
25 25 25 25 25 26 26 26 26 27 27 27 29 30 30 31 31 31 32 33 33 33 34 34 35 35 35 36 36 37 37 38 38 39 39 39 39 39 39 39 39 40 40
26 26 26 27 27 27 27 27 27 28 28 29 29 30 31 32 32 32 33 33 34 34 34 35 36 36 36 36 37 38 38 39 39 40 40 40 40 40 40 40 40 41 41
26 27 27 28 28 28 29 29 29 30 30 31 31 32 33 33 33 34 34 34 35 35 36 37 37 37 37 37 38 39 39 40 40 41 40 41 41 41 41 41 41 42 42
28 28 29 29 30 30 30 30 31 32 32 33 33 34 34 35 35 35 35 36 36 37 37 38 39 39 39 39 39 40 40 41 42 42 42 42 42 42 42 43 43 43 43
30 30 30 31 32 32 32 33 33 34 34 35 35 36 36 37 37 37 37 37 38 38 39 40 40 40 40 40 41 41 41 42 42 43 43 43 42 43 43 43 44 44 44
32 32 33 33 33 34 35 35 36 36 36 37 38 38 38 38 38 38 39 39 39 40 41 41 41 40 41 41 42 42 42 43 43 43 44 44 44 44 44 44 44 44 45
34 34 35 35 36 36 36 37 37 37 38 38 39 39 39 40 40 40 40 40 40 41 41 41 40 40 41 41 42 42 43 44 44 44 45 45 45 44 44 45 45 45 45
36 36 37 38 38 38 38 38 38 39 39 40 40 40 40 40 40 40 40 40 41 41 41 41 41 42 42 42 43 43 44 45 45 45 45 44 44 44 45 45 45 45 45
37 38 39 39 39 39 39 39 39 39 40 40 40 40 40 40 40 40 41 41 41 41 41 41 42 42 42 44 44 45 45 46 46 46 46 45 45 45 45 45 45 45 45
Wind_Direction
240 244 245 252 258 262 270 278 282 288 292 298 303 306 306 307 309 311 314 317 319 321 321 323 324 325 327 327 326 325 323 320 318 318 316 314 312 307 302 299 296 293 291
243 245 247 251 257 265 271 276 280 287 292 297 301 304 306 307 308 308 310 313 315 315 316 318 320 321 322 322 322 321 320 318 316 315 315 313 311 309 304 300 297 293 292
246 248 251 254 259 264 269 274 277 283 288 294 299 301 303 305 307 308 308 308 311 313 314 316 318 318 317 317 317 317 317 316 315 314 314 313 311 308 305 299 297 295 292
249 250 254 255 257 262 265 271 274 280 286 292 295 296 297 301 303 305 306 306 307 308 310 313 315 315 315 315 315 315 314 314 313 312 312 311 309 307 304 302 300 296 293
251 252 256 257 259 262 265 270 272 276 284 288 290 293 293 296 299 301 302 303 305 306 308 310 311 312 312 314 314 314 314 312 311 311 311 310 308 306 304 302 300 298 298
251 252 255 257 260 261 264 267 269 274 280 283 286 290 292 294 295 298 299 299 302 305 308 309 311 312 312 312 312 314 314 313 313 312 310 309 307 305 303 301 299 297 297
252 252 256 259 260 261 264 266 269 272 278 281 283 286 289 292 293 294 296 298 300 302 304 306 307 309 310 309 310 311 313 313 312 313 312 309 307 304 303 302 300 298 298
254 255 257 258 260 262 265 268 271 273 277 279 282 285 287 290 292 292 295 298 301 302 302 303 305 307 308 308 309 310 311 311 311 312 312 311 308 304 302 302 300 299 298
256 257 258 258 260 263 266 269 271 274 277 279 282 285 288 289 291 293 294 297 299 301 302 303 305 306 307 307 307 308 309 310 310 311 311 310 308 306 305 303 302 301 299
258 261 260 260 261 262 266 269 270 272 277 280 282 285 288 289 290 292 293 294 296 299 301 302 304 304 305 306 307 307 307 308 308 310 310 309 307 305 304 302 301 299 299
260 262 262 262 262 262 265 268 270 272 276 281 284 286 288 288 290 293 294 295 295 297 299 301 302 303 303 304 305 305 305 306 306 307 307 306 305 304 302 300 299 299 299
261 262 263 265 266 264 266 268 269 272 276 279 282 286 288 289 292 293 293 294 295 297 299 301 301 302 302 303 304 304 304 304 305 305 305 304 303 302 300 299 299 299 299
264 265 265 266 267 267 268 270 270 272 276 279 282 285 287 289 291 294 292 292 293 296 298 300 300 301 302 303 303 303 304 303 303 303 303 303 302 301 299 298 298 299 298
267 268 267 266 267 268 269 270 273 276 278 280 282 285 288 291 292 293 293 292 292 294 296 297 298 300 300 301 302 302 303 303 303 302 302 302 302 301 300 299 298 299 298
268 269 268 268 268 269 270 271 274 276 278 280 283 285 288 291 291 292 293 293 293 294 295 297 298 299 300 300 301 302 302 301 301 302 301 301 301 300 300 300 299 298 298
268 268 268 268 270 271 271 271 273 276 278 281 283 285 287 289 291 292 292 292 291 293 295 296 298 299 300 300 301 301 301 301 301 301 301 300 299 299 299 298 298 297 297
269 268 269 270 271 272 272 273 275 276 278 280 282 285 287 288 290 293 294 293 291 292 294 296 298 299 299 299 300 300 301 301 301 302 301 300 299 299 298 298 297 297 297
269 268 269 270 271 272 273 274 275 276 278 280 282 285 287 290 291 293 293 293 293 293 295 296 298 299 300 300 299 299 300 300 301 301 301 300 299 299 298 298 297 297 297
267 268 269 270 271 272 274 275 276 277 279 281 283 286 288 290 291 293 293 293 294 294 295 297 298 299 299 299 300 299 299 300 301 302 301 301 300 298 298 297 297 298 298
268 269 270 270 271 273 274 275 276 278 280 282 284 285 287 289 290 291 292 293 294 295 296 297 298 299 299 300 300 300 301 301 301 302 301 301 300 299 298 298 297 298 298
270 272 272 272 272 273 274 276 277 279 281 282 283 285 287 288 289 290 291 292 293 295 296 297 297 297 298 299 299 299 300 301 302 302 301 301 300 299 298 298 298 298 298
271 272 273 274 274 275 276 277 279 280 281 282 283 285 286 287 289 290 291 292 293 294 295 296 296 296 297 297 298 298 299 301 301 301 301 301 300 299 298 298 298 299 299
270 271 272 273 275 276 277 279 279 280 281 281 282 284 285 286 287 288 290 291 292 294 295 295 295 295 296 296 297 298 299 300 301 301 301 300 300 300 300 300 300 300 300
271 272 274 274 276 277 278 279 279 280 281 282 282 283 285 286 287 288 289 290 292 293 294 294 294 295 295 296 297 299 300 301 301 302 302 301 301 301 301 301 300 300 300
273 273 274 276 276 277 278 279 279 280 280 281 282 283 285 286 287 288 289 290 292 294 294 294 294 294 295 295 296 298 298 300 301 302 303 303 302 302 301 301 300 300 300
274 274 275 276 277 277 277 278 279 279 280 281 282 283 284 285 286 288 289 291 293 294 294 294 294 294 295 296 296 297 298 299 300 301 302 302 302 301 301 301 300 300 301
Height
5874 5875 5876 5877 5878 5879 5880 5880 5880 5880 5880 5880 5879 5879 5878 5877 5877 5875 5874 5873 5872 5870 5869 5867 5866 5864 5862 5860 5859 5857 5855 5854 5852 5850 5848 5846 5844 5842 5840 5839 5837 5835 5834
5872 5873 5874 5875 5876 5877 5877 5878 5878 5878 5878 5878 5877 5877 5876 5875 5875 5874 5872 5871 5870 5868 5867 5865 5864 5862 5860 5858 5856 5854 5852 5851 5849 5847 5845 5843 5841 5838 5836 5835 5833 5831 5830
5869 5870 5871 5872 5873 5874 5875 5875 5875 5876 5875 5875 5875 5874 5874 5873 5872 5871 5870 5869 5867 5866 5864 5863 5861 5859 5858 5856 5854 5852 5850 5847 5845 5843 5841 5838 5836 5834 5832 5830 5829 5827 5826
5866 5868 5869 5870 5871 5871 5872 5873 5873 5873 5873 5873 5873 5872 5871 5871 5870 5868 5867 5866 5865 5863 5862 5860 5858 5857 5855 5853 5851 5848 5846 5844 5842 5839 5837 5834 5832 5829 5827 5825 5824 5822 5821
5864 5865 5866 5867 5868 5868 5869 5870 5870 5870 5870 5870 5870 5869 5869 5868 5867 5866 5864 5863 5862 5860 5859 5857 5855 5853 5851 5849 5847 5845 5842 5840 5837 5835 5832 5830 5827 5825 5822 5821 5819 5817 5816
5860 5861 5862 5863 5864 5865 5866 5866 5867 5867 5867 5867 5866 5866 5865 5864 5864 5862 5861 5860 5858 5857 5855 5854 5852 5850 5848 5846 5843 5841 5838 5835 5833 5830 5827 5825 5822 5819 5817 5815 5813 5811 5810
5856 5858 5859 5860 5861 5862 5862 5863 5863 5863 5863 5863 5863 5862 5862 5861 5860 5859 5857 5856 5855 5853 5852 5850 5848 5846 5844 5842 5839 5836 5833 5830 5828 5825 5822 5819 5816 5814 5812 5810 5807 5806 5804
5852 5854 5855 5856 5857 5858 5858 5859 5859 5859 5859 5859 5859 5858 5857 5857 5855 5854 5853 5852 5850 5849 5847 5845 5844 5841 5839 5837 5834 5831 5828 5825 5822 5819 5816 5813 5810 5808 5806 5804 5802 5800 5798
5849 5850 5851 5852 5852 5853 5854 5854 5855 5855 5855 5855 5854 5854 5853 5852 5851 5850 5849 5847 5846 5844 5842 5840 5838 5836 5834 5831 5829 5826 5823 5820 5816 5813 5810 5807 5804 5801 5799 5797 5795 5793 5791
5844 5845 5846 5847 5848 5848 5849 5850 5850 5850 5850 5850 5849 5849 5848 5847 5846 5845 5844 5842 5841 5839 5837 5835 5833 5830 5828 5825 5822 5820 5817 5814 5811 5808 5804 5801 5798 5795 5793 5790 5788 5786 5784
5839 5840 5841 5842 5843 5843 5844 5844 5845 5845 5845 5845 5844 5844 5843 5842 5841 5839 5838 5837 5835 5833 5831 5829 5827 5824 5821 5818 5816 5813 5810 5807 5804 5801 5798 5795 5792 5789 5786 5783 5781 5778 5776
5834 5835 5836 5836 5837 5837 5838 5839 5839 5839 5840 5839 5839 5838 5837 5836 5835 5833 5832 5830 5829 5827 5825 5822 5820 5817 5814 5811 5809 5806 5803 5800 5797 5794 5791 5787 5784 5781 5778 5776 5773 5770 5768
5829 5829 5830 5831 5831 5832 5832 5832 5832 5833 5833 5833 5833 5832 5831 5830 5829 5827 5825 5824 5822 5820 5818 5815 5813 5810 5807 5804 5801 5798 5795 5792 5789 5786 5783 5780 5776 5773 5770 5767 5764 5761 5759
5823 5823 5824 5824 5825 5825 5826 5826 5827 5827 5827 5827 5826 5826 5825 5823 5822 5820 5818 5816 5815 5813 5810 5808 5805 5802 5799 5797 5794 5791 5787 5784 5781 5778 5774 5771 5768 5764 5761 5758 5755 5752 5750
5817 5817 5818 5818 5819 5819 5819 5820 5820 5820 5820 5820 5819 5818 5817 5816 5814 5813 5811 5809 5807 5805 5802 5800 5797 5795 5792 5789 5785 5782 5779 5776 5772 5769 5765 5762 5758 5755 5752 5749 5745 5742 5740
5810 5810 5811 5811 5812 5812 5812 5813 5813 5813 5813 5812 5812 5811 5810 5808 5806 5804 5802 5800 5798 5796 5794 5792 5789 5786 5783 5780 5776 5773 5770 5766 5763 5759 5756 5752 5749 5745 5742 5738 5735 5732 5729
5803 5804 5804 5804 5805 5805 5805 5806 5806 5806 5805 5804 5803 5802 5801 5799 5798 5796 5794 5791 5789 5787 5785 5782 5779 5776 5773 5770 5767 5763 5760 5756 5752 5749 5745 5741 5738 5734 5730 5727 5724 5720 5717
5796 5796 5797 5797 5797 5797 5797 5797 5798 5797 5797 5796 5795 5794 5792 5791 5789 5787 5785 5782 5780 5778 5775 5773 5770 5767 5763 5760 5757 5753 5750 5746 5742 5738 5734 5730 5726 5723 5719 5715 5712 5709 5705
5788 5788 5789 5789 5789 5789 5789 5789 5789 5789 5788 5788 5787 5785 5784 5782 5780 5778 5776 5774 5771 5769 5766 5763 5760 5756 5753 5749 5746 5743 5739 5735 5731 5727 5723 5719 5715 5711 5707 5704 5700 5697 5693
5780 5780 5781 5781 5781 5781 5781 5781 5780 5780 5779 5779 5778 5777 5775 5773 5771 5769 5766 5764 5761 5759 5756 5753 5749 5746 5742 5739 5736 5732 5728 5724 5720 5716 5711 5707 5703 5699 5695 5692 5688 5685 5681
5771 5772 5772 5772 5772 5772 5771 5771 5771 5770 5770 5769 5768 5766 5765 5763 5761 5759 5756 5754 5751 5748 5745 5742 5739 5735 5732 5728 5725 5721 5717 5713 5708 5704 5700 5695 5691 5687 5683 5679 5676 5672 5668
5762 5762 5762 5762 5762 5762 5762 5761 5761 5760 5759 5758 5757 5756 5754 5752 5750 5748 5746 5743 5740 5737 5734 5731 5727 5724 5720 5717 5713 5709 5706 5701 5697 5692 5688 5684 5679 5675 5671 5667 5663 5659 5655
5752 5752 5752 5752 5752 5751 5751 5751 5750 5749 5748 5747 5746 5744 5743 5741 5739 5737 5734 5732 5729 5726 5722 5719 5715 5712 5709 5705 5701 5698 5694 5690 5685 5680 5676 5671 5667 5663 5658 5654 5650 5646 5642
5742 5742 5741 5741 5741 5740 5740 5739 5738 5737 5737 5735 5734 5732 5731 5729 5727 5725 5722 5719 5716 5713 5710 5706 5703 5700 5696 5693 5689 5685 5681 5677 5672 5668 5663 5659 5654 5650 5646 5642 5637 5633 5629
5731 5730 5730 5729 5729 5728 5728 5727 5726 5725 5724 5723 5721 5720 5718 5716 5714 5712 5709 5707 5704 5701 5697 5694 5691 5687 5684 5680 5677 5673 5669 5664 5660 5656 5651 5646 5642 5637 5633 5628 5624 5620 5615
5719 5719 5718 5717 5716 5716 5715 5715 5714 5713 5712 5710 5709 5707 5705 5704 5702 5699 5697 5694 5691 5688 5685 5682 5678 5675 5671 5668 5664 5660 5656 5652 5647 5643 5638 5634 5629 5625 5620 5616 5611 5607 5602